Погода в Батурино

Россия / Курганская область     55°51′24″N   63°40′08″E
темп.,
°C
ветер,
м/с
пор.,
м/с
влажн.,
%
обл.,
%
осадки,
мм/ч
давл.,
гПа
погр.,
м
21 апреля, ср
ср2123:00+3зсз46560 0.0 102985
02:00+2сз48710 0.0 1029135
05:00+1сз47790 0.0 1030105
08:00+5сз46670 0.0 1031237
11:00+9сз45510 0.0 1031844
14:00+12ссз44395 0.0 10311649
17:00+13с33375 0.0 10321781
20:00+10ссз11465 0.0 103211
22 апреля, чт
чт2223:00+7вюв34603 0.0 103461
02:00+5юв38740 0.0 1034141
05:00+4ююв34775 0.0 103664
08:00+8ююв45615 0.0 1036202
11:00+13ю563970 0.0 10361111
14:00+15ю6730100 0.0 10352030
17:00+15ююз6831100 0.0 10341990
20:00+11ю3546100 0.0 103485
23 апреля, пт
пт2323:00+9ю3653100 0.0 1034107
02:00+7ююв3761100 0.0 1034122
05:00+6ю4968100 0.0 1034183
08:00+8ююв4768100 0.0 1034254
11:00+13ю6845100 0.0 10331376
14:00+13ююз71049100 0.0 10331745
17:00+13ююз575364 0.1 10321421
20:00+11ю4863100 0.1 1031180
24 апреля, сб
сб2423:00+8ююв3867100 0.1 1031169
02:00+7ююв41060100 0.0 1029239
05:00+7ю3757100 0.0 1028164
08:00+7ю3670100 0.1 1028299
11:00+10юв6948100 0.2 10261475
14:00+9ююв5861100 0.1 10251154
17:00+12ююв6839100 0.1 10231846
20:00+10юв3743100 0.0 1022178
25 апреля, вс
вс2523:00+8ю61052100 0.0 1021758
02:00+6ююв3766100 0.0 1020512
05:00+6юв3863100 0.0 1018306
08:00+7ююв4763100 0.0 1018930
11:00+8ю236989 0.0 1017672
14:00+14ю464174 0.0 10151861
17:00+15ю573398 0.0 10142227
20:00+11ююз354810 0.0 101480